Lapse_Rate
-2.1 -2.4 -2.7 -2.9 -3.0 -3.5 -3.9 -4.2 -4.2 -4.4 -4.7 -5.0 -5.5 -5.8 -6.3 -6.7 -6.7 -3.1 4.2 4.8 3.4 1.2 0.6 4.6 4.9 5.8 6.2 6.6 7.0 5.4 6.5 6.5 6.5 6.5 6.5 5.1 6.5 5.7 6.4 6.3 6.9 7.0 7.1 7.3 7.6
-2.5 -2.8 -3.0 -3.3 -3.3 -3.7 -4.1 -4.4 -4.5 -4.8 -5.2 -5.4 -5.8 -6.2 -6.4 -7.0 -2.3 4.2 2.8 1.2 0.9 -0.1 5.4 6.6 6.4 6.4 5.0 6.7 4.5 6.0 6.5 6.5 6.5 6.5 6.5 6.2 6.6 6.4 6.1 5.8 6.4 7.0 7.5 8.0 7.8
-2.4 -2.8 -3.0 -3.4 -3.6 -3.9 -4.3 -4.5 -4.9 -5.2 -5.5 -5.8 -6.1 -6.3 -6.4 -7.0 1.8 7.2 -0.1 0.5 0.4 0.2 4.8 5.6 5.9 6.9 5.7 5.8 5.8 5.1 6.5 6.5 6.4 5.7 5.9 5.9 6.6 6.7 6.5 6.5 5.1 6.6 7.1 7.6 7.2
-2.7 -2.9 -3.2 -3.5 -3.8 -4.2 -4.3 -4.7 -5.3 -5.6 -5.9 -6.1 -6.3 -6.4 -6.5 -3.3 6.5 6.3 0.5 0.7 0.4 1.4 4.6 5.3 6.4 5.9 6.2 6.5 5.9 6.4 6.2 6.5 6.3 6.4 5.8 6.4 5.9 6.7 6.6 5.0 6.3 7.1 7.3 7.3 6.6
-2.7 -3.0 -3.5 -3.8 -4.0 -4.5 -4.8 -5.1 -5.6 -6.0 -6.2 -6.3 -6.2 -6.1 -3.3 3.0 6.6 3.1 0.1 0.8 2.6 4.5 4.7 6.2 6.0 5.5 6.5 6.2 6.2 6.5 6.5 6.4 6.3 6.2 5.8 6.9 6.0 6.5 6.4 5.8 5.7 7.7 7.5 6.9 6.4
-2.7 -3.1 -3.6 -4.0 -4.4 -4.9 -5.3 -5.6 -5.9 -6.2 -6.3 -6.1 -5.7 -6.5 0.4 6.3 6.3 4.8 3.2 4.2 4.6 5.6 6.4 7.1 6.5 6.4 5.8 6.0 6.4 5.9 5.7 5.8 5.6 6.0 6.2 6.4 6.1 5.9 6.2 6.7 7.6 7.5 6.6 6.9 6.3
-2.7 -3.0 -3.5 -4.1 -4.6 -5.1 -5.6 -6.0 -6.2 -6.3 -5.9 -5.5 -4.9 -1.1 3.7 4.8 7.0 5.7 4.2 5.9 6.9 7.9 7.1 7.6 7.1 5.8 5.2 6.5 6.0 6.2 6.5 6.5 5.9 5.6 6.4 4.7 6.5 6.5 5.9 7.2 7.0 7.0 6.9 6.3 5.8
-2.8 -3.2 -3.6 -4.2 -4.9 -5.4 -5.9 -6.4 -6.3 -6.1 -5.4 -4.7 -4.2 0.5 2.9 7.7 6.1 8.0 7.0 6.8 8.5 7.3 7.4 7.7 7.7 6.2 6.1 5.5 5.9 6.5 6.5 6.5 6.5 6.3 5.7 5.3 6.5 6.6 5.4 5.7 5.7 6.8 7.0 6.3 5.2
-2.8 -3.3 -3.8 -4.3 -5.1 -5.9 -6.5 -6.8 -6.1 -5.7 -4.7 -4.2 -0.4 3.4 6.0 6.4 7.4 7.6 7.7 7.7 7.2 7.7 7.2 9.0 7.7 5.7 5.2 6.5 6.5 6.5 6.5 6.5 6.5 5.9 6.5 6.5 6.5 6.3 4.5 5.9 5.3 5.4 5.5 5.5 5.0
-2.8 -3.4 -4.0 -4.6 -5.1 -6.1 -7.1 -5.9 -4.0 -4.2 -2.0 1.1 3.6 5.4 4.6 7.4 7.6 8.0 7.6 8.1 7.9 7.3 7.0 6.7 5.3 6.5 6.5 6.5 6.5 6.5 6.5 6.5 6.5 6.5 6.5 6.5 6.5 6.5 5.5 5.9 5.4 4.7 4.4 5.0 4.9
-2.7 -3.3 -3.9 -4.6 -5.2 -6.0 -7.2 -1.5 3.0 3.9 3.4 5.9 6.1 6.0 7.5 8.0 8.2 7.7 8.0 8.0 7.2 6.8 6.5 5.0 6.5 6.5 6.5 6.5 6.5 6.5 6.5 6.5 6.5 6.5 6.5 6.5 6.5 6.5 5.0 6.0 6.0 4.5 3.8 5.0 5.1
-2.6 -3.3 -3.9 -4.6 -5.4 -5.8 -6.7 2.2 7.5 7.4 5.4 6.9 7.5 7.2 7.8 7.8 7.2 7.7 8.0 6.7 6.2 6.5 6.1 6.5 6.5 6.5 6.5 6.5 6.5 6.5 6.5 6.5 6.5 6.5 6.5 6.5 6.5 6.5 6.5 5.9 6.0 5.8 4.8 4.8 4.9
-2.6 -3.3 -4.0 -4.8 -5.7 -3.9 2.4 5.6 7.7 7.0 5.5 6.8 6.9 7.1 7.0 7.3 6.9 6.5 6.5 6.5 6.3 6.5 6.5 6.5 6.5 6.5 6.5 6.5 6.5 6.5 6.5 6.5 6.5 6.5 6.5 6.5 6.5 6.5 6.4 5.3 6.1 5.7 5.5 5.3 5.3
-2.5 -3.1 -3.9 -6.2 -0.6 2.0 5.3 7.8 7.8 7.5 6.5 6.5 6.3 6.7 7.1 6.8 6.2 7.7 7.6 6.9 6.4 6.5 6.5 6.5 6.3 6.5 6.5 6.5 6.5 6.5 6.5 6.5 6.5 6.5 6.5 6.5 6.5 6.5 6.5 6.5 6.4 6.1 5.7 5.4 5.0
-2.2 -3.0 -3.7 -5.3 -2.7 2.0 6.5 7.4 7.5 5.9 6.5 6.5 6.4 7.2 6.6 5.9 6.2 6.8 7.5 6.6 6.5 6.5 6.5 6.5 6.5 6.5 6.5 6.5 6.5 6.5 6.5 6.5 6.5 6.5 6.5 6.5 6.5 6.5 6.5 6.5 6.5 5.8 6.2 5.7 4.5
-2.2 -3.0 -4.0 0.0 -2.9 1.5 5.4 6.5 6.0 6.5 6.5 6.5 6.5 6.4 6.4 6.1 6.6 6.7 6.4 6.7 6.6 6.5 6.5 6.5 5.9 6.5 6.5 6.5 6.5 6.5 6.5 6.5 6.5 6.5 6.5 6.5 6.5 6.5 6.5 6.5 6.5 5.3 3.1 5.5 4.9
-2.4 -3.1 -4.1 0.2 3.7 4.8 6.0 5.8 6.5 6.5 6.5 6.5 6.5 6.5 6.5 6.5 6.5 6.5 6.5 6.5 6.5 6.5 6.5 6.5 6.5 6.5 6.4 6.5 6.5 6.5 6.5 6.5 6.5 6.5 6.5 6.5 6.5 6.5 6.5 6.5 6.5 6.2 5.5 5.6 6.1
-3.0 -3.8 -1.7 0.1 3.8 5.0 5.8 6.3 6.5 6.5 6.5 6.5 6.5 6.5 6.5 6.5 6.5 6.5 6.5 6.5 6.5 6.5 6.5 6.5 6.5 6.5 6.5 6.5 6.5 6.5 6.5 6.5 6.5 6.5 6.5 6.5 6.5 6.5 6.5 5.1 4.5 4.9 4.6 5.5 5.1
-3.5 2.8 3.2 2.9 1.8 3.7 5.2 6.5 6.5 6.5 6.5 6.5 6.5 6.5 6.5 6.5 6.5 6.5 6.5 6.5 6.5 6.5 6.5 6.5 6.5 6.5 6.5 6.5 6.5 6.5 6.5 6.5 6.5 6.5 6.5 6.5 6.5 6.5 6.5 6.5 5.8 5.6 4.8 5.2 5.2
-1.7 3.1 5.5 7.8 5.9 5.3 6.1 6.5 6.5 6.4 6.5 6.5 6.5 6.5 6.5 6.5 6.5 6.5 6.5 6.5 6.5 6.5 5.5 6.5 6.5 6.5 6.5 6.1 6.3 6.5 6.5 6.5 6.5 6.5 6.5 6.5 6.5 6.5 6.5 6.5 6.5 6.0 4.3 3.9 4.2
1.0 5.6 7.0 8.4 7.2 5.4 6.5 6.5 6.5 6.9 6.7 6.5 6.5 6.5 6.5 6.5 6.5 6.5 6.5 6.5 6.5 6.5 6.0 6.5 6.5 6.5 6.5 6.5 6.5 6.5 6.5 6.5 6.5 6.5 6.5 6.5 6.5 6.5 6.5 6.5 6.5 6.3 5.6 3.4 4.0
4.5 6.4 7.1 7.5 5.5 4.9 6.5 6.5 5.5 6.6 6.8 6.5 6.5 6.5 6.5 6.5 6.5 6.5 6.5 6.5 5.9 6.2 6.5 6.5 6.5 6.5 6.5 6.5 6.5 6.5 6.5 6.5 6.5 6.5 6.5 6.5 6.5 6.5 6.5 6.0 6.6 5.4 1.9 5.5 4.1
5.0 6.6 7.3 7.1 6.5 6.5 6.3 6.5 6.6 6.5 6.5 6.5 6.5 6.5 6.5 6.5 6.5 6.5 6.5 6.1 6.3 6.5 6.5 6.5 6.5 6.5 6.5 6.5 6.5 6.5 6.5 6.5 6.5 6.5 6.5 6.5 6.5 6.5 6.2 6.4 6.6 5.4 2.5 2.9 4.1
6.0 6.5 6.0 5.8 5.7 6.4 6.5 6.5 6.5 6.9 6.5 6.5 6.5 6.2 6.5 6.5 6.5 6.5 6.5 6.5 6.2 6.3 2.9 4.8 6.5 6.5 6.5 6.5 6.5 6.5 6.5 6.5 6.5 6.5 6.5 6.5 6.5 6.5 6.5 6.5 5.5 5.0 3.8 1.9 3.8
6.4 6.4 6.9 6.5 6.3 6.5 6.3 6.5 6.5 6.5 6.5 6.5 6.5 6.5 6.5 6.5 6.5 6.5 6.5 6.5 6.5 4.8 6.1 6.5 6.5 6.5 6.5 6.5 6.5 6.5 6.5 6.5 6.5 6.5 6.5 6.5 6.5 6.5 6.5 6.5 5.9 2.5 0.7 -0.1 3.2
6.4 6.3 7.0 6.5 5.4 6.3 6.5 6.5 6.5 6.5 6.5 6.5 6.5 6.5 6.5 6.5 6.5 6.5 6.5 6.5 6.5 6.6 6.5 6.5 6.5 6.5 6.5 6.5 6.5 6.5 6.5 6.5 6.5 6.5 6.5 6.5 6.5 6.5 6.2 2.9 3.4 3.3 1.9 2.4 3.6
6.8 7.2 6.4 5.8 6.1 6.5 6.5 6.5 6.5 6.4 6.4 6.4 6.4 6.5 6.5 6.5 6.3 5.4 5.5 5.1 6.3 6.5 6.5 6.5 6.5 6.5 6.5 6.5 6.5 6.5 6.5 6.5 6.5 6.5 6.5 6.5 6.5 6.5 6.5 6.4 5.6 2.6 0.2 1.8 5.9
Wind_Speed
19 19 19 19 19 19 19 20 19 20 19 18 18 19 18 17 21 4 4 2 3 8 9 10 11 9 8 6 6 9 7 4 10 15 6 10 20 10 11 13 14 6 17 16 17
21 21 21 21 21 20 20 20 21 21 21 20 16 17 15 15 4 7 1 3 5 6 4 9 12 9 3 3 2 4 7 12 14 7 4 7 19 12 7 7 8 16 17 17 16
21 21 21 22 22 22 21 22 22 22 21 21 17 14 12 10 4 2 4 3 5 4 4 8 13 9 9 6 5 4 5 4 4 7 7 5 14 4 13 0 6 19 17 17 15
22 22 22 22 22 22 22 23 23 23 22 20 20 14 10 3 3 3 6 2 5 6 6 8 9 5 5 4 5 6 9 7 4 3 7 9 13 11 11 9 15 18 17 14 13
22 23 23 23 23 23 24 24 24 24 23 21 18 15 1 3 4 5 4 4 4 4 7 11 9 7 6 8 6 3 4 2 4 5 7 2 8 16 12 15 14 18 17 14 11
22 23 24 25 25 25 25 24 24 24 23 19 16 14 2 5 7 11 7 6 9 9 10 8 6 10 7 7 4 6 8 7 7 5 6 6 5 10 11 20 20 18 15 14 12
23 23 25 26 27 27 26 26 25 23 22 16 13 5 4 9 10 12 10 8 7 5 8 7 8 9 11 10 7 4 6 9 10 7 5 8 7 2 7 17 20 17 14 11 11
25 25 26 27 28 28 28 28 27 24 19 13 8 4 6 2 5 10 10 10 6 8 7 6 6 7 5 8 7 4 6 6 12 9 5 7 4 6 6 14 14 18 15 12 9
25 27 27 27 28 29 30 34 28 18 14 13 4 2 7 2 4 7 8 9 8 6 7 6 4 6 8 5 6 6 7 7 2 5 4 4 5 9 8 11 12 12 11 12 9
26 27 28 28 28 28 34 34 13 8 6 6 7 5 5 8 7 7 9 9 3 6 6 5 3 3 5 0 6 5 3 8 8 7 7 4 4 8 10 16 13 10 10 12 10
26 27 28 30 30 25 15 5 3 3 3 7 3 4 4 6 6 6 8 2 7 5 6 8 2 7 14 11 4 6 7 8 5 7 6 2 5 8 10 15 14 11 10 12 12
27 28 29 30 31 27 5 4 5 5 8 12 15 18 19 7 6 7 7 5 6 7 8 6 9 12 9 3 6 7 7 8 8 7 6 3 9 11 9 10 17 16 13 11 9
28 28 30 33 34 8 5 9 8 8 4 8 14 11 13 6 6 8 10 8 8 9 10 9 10 10 2 5 6 5 5 7 6 6 3 4 7 9 7 6 16 16 14 11 13
28 29 29 35 3 7 5 5 5 6 3 6 7 13 13 7 7 15 12 8 6 10 10 8 12 5 2 4 2 6 9 7 3 6 3 2 6 7 6 8 9 16 14 12 13
28 28 29 11 7 5 6 12 8 4 2 8 11 9 9 10 0 10 14 8 12 12 5 10 8 5 6 5 6 10 4 6 6 6 4 10 4 7 7 5 4 5 15 14 12
29 27 26 4 3 8 18 13 4 0 6 2 5 9 9 10 15 7 9 6 8 13 12 10 7 2 3 7 8 5 6 6 5 1 3 5 2 4 4 1 1 4 9 14 16
32 28 12 8 4 16 12 4 1 4 5 4 7 10 10 9 16 10 10 8 7 3 6 9 8 4 3 7 4 4 3 3 4 3 5 7 3 9 14 8 10 13 13 13 15
37 33 8 8 13 11 4 1 4 8 13 13 4 12 14 11 13 15 10 8 9 9 5 6 7 10 8 7 5 7 9 5 3 2 5 3 4 2 10 8 6 8 11 15 14
36 1 3 5 17 4 1 3 6 6 5 12 15 11 9 13 9 12 9 12 12 12 8 4 9 12 10 6 5 5 4 10 4 3 4 4 2 4 5 5 6 4 10 12 14
3 4 5 10 15 3 2 5 8 10 14 9 10 5 3 13 12 12 10 9 11 15 11 8 6 7 11 7 5 7 4 5 4 1 5 6 1 3 3 1 6 9 7 8 9
2 3 1 15 5 0 3 6 6 13 16 7 10 7 8 10 11 8 12 11 16 13 14 9 6 10 4 3 6 3 4 3 3 4 3 3 3 6 8 6 11 22 16 9 9
4 3 5 5 2 3 4 4 4 15 20 3 6 5 6 12 6 7 8 9 8 18 10 10 5 3 9 8 11 9 8 7 5 7 4 4 3 3 9 12 16 25 27 18 8
4 3 2 3 3 5 6 12 15 18 19 4 5 7 4 6 6 7 5 7 16 5 3 3 3 1 9 9 7 1 6 1 2 2 4 3 5 1 4 20 20 17 15 21 10
3 2 2 3 5 5 6 8 13 16 18 3 7 7 6 4 7 6 9 6 7 6 6 5 4 4 6 6 3 4 7 4 5 2 5 5 5 4 1 9 11 24 28 12 9
3 3 4 1 4 10 8 10 15 10 4 3 7 8 7 3 7 7 4 6 5 4 4 4 2 5 7 9 9 11 8 5 3 6 3 8 7 9 1 1 4 6 2 4 13
3 4 6 8 9 7 6 10 11 11 3 5 4 11 7 3 5 5 8 6 5 6 3 3 3 5 5 7 12 15 16 9 9 10 11 13 2 6 2 6 5 8 4 2 14
4 6 4 8 7 5 6 7 6 8 7 7 11 5 3 11 12 9 4 4 4 4 4 3 2 2 6 7 9 8 5 3 5 4 9 6 7 7 6 9 8 10 6 9 12
Wind_Direction
7 4 0 356 352 349 346 342 334 329 327 324 323 321 323 320 309 190 249 270 299 349 336 294 279 257 251 261 238 115 73 236 240 249 107 130 104 77 75 62 45 99 138 141 136
5 359 356 353 349 346 343 337 328 326 325 320 322 319 320 332 298 256 249 279 296 350 298 308 320 315 242 357 8 106 155 222 246 28 90 110 123 136 107 82 78 96 118 136 142
2 357 353 350 348 340 339 330 327 324 321 318 318 317 315 327 285 147 187 252 317 285 250 282 282 299 286 205 183 223 186 214 272 5 17 90 103 104 121 71 169 139 148 150 148
360 354 350 348 344 337 333 330 326 322 318 319 316 315 316 232 42 124 159 175 283 298 295 276 266 269 287 263 142 144 253 262 85 58 34 28 140 123 162 191 166 144 154 156 149
356 350 348 344 339 334 331 328 323 322 317 318 320 325 282 260 238 135 157 187 270 257 236 273 293 299 327 324 138 218 206 57 224 141 114 199 357 143 134 151 147 146 156 160 162
354 349 344 341 337 331 327 323 321 316 315 318 321 321 266 285 119 144 201 184 240 232 285 286 312 332 297 326 30 359 347 338 318 269 171 87 17 100 118 147 153 153 157 173 163
350 347 342 337 334 328 325 320 315 312 310 312 322 312 283 247 140 164 222 224 249 285 302 306 5 351 332 324 302 315 317 280 245 245 121 116 31 114 137 141 147 154 165 177 168
347 344 340 335 329 327 322 316 307 302 295 299 311 294 259 199 331 178 209 252 237 272 282 322 352 299 284 295 324 237 258 270 261 178 182 101 248 250 211 140 148 161 174 170 166
345 341 337 333 328 327 321 311 299 286 266 285 277 244 272 352 249 230 218 245 211 243 280 294 325 248 304 260 311 293 248 243 83 147 149 147 220 238 225 159 159 162 161 150 150
343 338 333 330 327 327 323 302 287 317 228 237 264 326 261 230 187 209 215 253 287 233 268 234 242 242 300 250 240 289 260 309 132 165 178 319 225 213 212 161 159 151 143 151 153
342 336 331 327 324 328 340 345 343 30 237 230 270 237 259 217 67 195 196 152 271 274 247 253 159 240 240 238 292 11 341 332 330 118 83 354 292 203 188 155 156 153 149 159 156
339 334 331 325 319 317 282 275 17 281 297 275 255 251 270 148 194 232 170 194 221 243 239 291 227 249 273 67 28 346 324 306 308 132 114 210 283 282 188 173 161 158 161 163 156
336 333 331 326 317 300 225 269 314 312 278 274 228 241 235 152 245 224 181 206 241 224 254 222 251 226 5 357 351 310 273 291 272 354 355 189 276 261 248 142 159 165 163 159 162
334 331 333 332 338 335 272 221 312 325 314 263 204 224 210 181 240 238 190 188 228 240 243 243 256 207 275 280 252 279 277 315 323 21 282 24 283 274 217 165 142 160 159 174 163
331 329 328 320 305 290 325 330 340 3 322 212 206 159 167 187 271 210 185 191 242 257 224 251 261 283 174 245 219 245 345 5 342 308 9 310 34 296 41 42 110 95 170 176 152
327 326 331 106 205 255 287 292 342 350 243 254 115 167 185 199 229 234 156 176 234 257 276 252 307 237 224 232 253 353 357 341 303 229 355 283 70 0 309 249 246 212 260 147 142
322 316 308 300 239 336 318 340 104 229 271 217 155 166 209 188 221 228 182 179 212 222 287 297 267 210 217 301 222 160 20 319 331 45 217 265 28 187 211 204 184 190 142 143 144
321 312 240 214 254 313 317 337 235 244 254 300 268 184 192 213 204 236 179 190 217 244 216 223 283 217 197 198 213 187 169 171 271 153 236 355 240 303 100 59 30 104 138 144 136
318 222 229 229 219 252 15 209 204 234 206 305 314 183 197 207 203 208 187 197 199 219 218 242 250 277 180 157 187 270 191 220 228 289 38 214 195 259 18 82 104 174 154 147 145
308 280 252 173 172 167 128 251 237 268 291 332 308 162 218 202 209 190 210 198 224 208 207 253 318 315 169 154 215 170 243 12 344 275 282 301 189 210 39 76 330 350 132 129 145
245 272 106 137 132 163 213 241 309 281 288 319 338 346 345 342 227 212 206 209 209 232 207 212 178 286 73 119 219 270 261 266 154 140 170 287 259 221 194 162 45 18 312 145 153
303 277 184 125 122 223 237 254 268 298 305 316 309 295 296 333 6 342 191 198 236 209 222 203 164 233 228 219 202 209 215 183 131 275 221 176 259 3 99 72 95 80 306 320 125
301 269 204 151 205 231 251 259 262 273 276 248 283 290 314 334 341 30 321 34 18 48 55 309 169 335 329 340 331 304 228 261 186 122 248 131 240 230 73 103 101 108 304 314 270
277 264 149 200 255 283 275 283 263 261 264 292 313 296 304 298 319 321 349 354 60 82 41 70 61 142 199 225 331 306 333 341 77 4 263 238 148 353 20 88 114 137 212 265 312
237 310 29 360 233 225 245 280 295 265 223 344 336 299 287 338 322 302 306 331 354 41 58 68 62 40 331 335 329 318 264 281 335 244 193 269 125 216 98 101 61 278 339 71 305
325 352 346 296 311 328 250 249 283 313 139 216 256 296 325 254 288 340 3 25 66 352 70 11 318 13 314 318 305 304 306 211 217 223 249 97 53 72 243 98 139 250 279 327 298
346 336 291 289 304 301 293 301 249 297 329 281 221 241 309 5 337 326 358 11 37 350 31 53 51 90 275 307 314 317 285 61 239 323 350 272 145 155 196 197 200 222 231 274 257